NOAA 16 DEB, 41126

Orbit data source: Space-Track

NOAA 16 DEB, 41126 is space debris in SSO originally from a launch on Thu, 21 Sep 2000 UTC launched from the Air Force Western Test Range (AFWTR). Debris objects in space refer to the collection of defunct objects orbiting the Earth. Examples of debris include non-operational satellites, rocket bodies, and fragments generated from explosions, collisions, or faulty payload assembly.

Loading next visibility...
Identifier
41126, 2000-055BH
Orbit
SSO
Country
Flag of USUS
Related business
Manufacturer
Unknown
Mission
Spacecraft
Bus & Motor
Unknown
Mass
Unknown
Launch date (UTC)
2000-09-21 (26 years ago)
Launch vehicle
Unknown
Launch site
Air Force Western Test Range (AFWTR)
Object type
Payload
Rocket body
Debris
Shape & HBR
Unknown shape, 0.1 m
Radar Cross Section
Small (<0.1 m²)

Expand to show TLE details & history
Last TLE update: 11 hours ago

TLE from 11 hours ago
0 NOAA 16 DEB
1 41126U 00055BH  26123.94691488  .00002941  00000-0  15444-2 0  9993
2 41126  98.7666 127.5288 0068179 120.7643 240.0266 14.13704479533084
Epoch: 2026-05-03T22:43Z
TLE epoch observation values (Epoch: 2026-05-03T22:43:33.445Z)
Latitude
-0.00008°
Longitude
-75.2037°
Altitude
874.492 km
Speed
7.402 km/s
True Right ascension
08h 30m 06s
True Declination
0° 00' 00"
Sunlit
Object was in daylight at epoch
Visualization orbit readout
Latitude
Unknown
Longitude
Unknown
Altitude
Unknown
Speed
Unknown
Apparent Right ascension
Unknown
Apparent Declination
Unknown
Sunlit
N/A
Visualization observer readout
Local Sidereal Time
17:52:51
Azimuth
Unknown
Elevation
Unknown
Doppler factor
Unknown
Orbital elements
Apogee altitude
893.131 km
Perigee altitude
794.653 km
Semi-major axis
7,222.029 km
Eccentricity
0.00682
Inclination
98.7666°
RAAN
127.5288°
Arg. of periapsis
120.7643°
True anomaly
239.3527°
Mean anomaly
240.0266°
Eccentric anomaly
239.68936°
Mean motion
3.53634 °/min
Orbital period
101.8 mins
BSTAR
0.0015444
Loading maneuver chart data...
Computing Atmospheric mass density...
Loading historical data...
Loading historical data...
Loading historical data...
Loading historical data...
Loading historical data...
Loading historical data...
Loading historical data...

Documentation

Showing up to 5 results
|